Weather History for Cloquet, MN

Change the Weather History Date:

Sunday, December 2, 2012

  Actual Average Record
Temperature  
Mean Temperature 34 °F -  
Max Temperature 35 °F 28 °F 51 °F (1998)
Min Temperature 33 °F 16 °F -4 °F (2002)
Degree Days  
Heating Degree Days 31    
Moisture  
Dew Point 32 °F    
Average Humidity 91    
Maximum Humidity 93    
Minimum Humidity 87    
Precipitation  
Precipitation 0.00 in - - ()
Sea Level Pressure  
Sea Level Pressure 29.87 in    
Wind  
Wind Speed 3 mph (SSE)    
Max Wind Speed 9 mph    
Max Gust Speed -    
Visibility 1 miles    
Events Fog    
Averages and records for this station are not official NWS values.
T = Trace of Precipitation, MM = Missing Value Source: NWS Daily Summary

Daily Weather History Graph

Daily Weather History Graph

Search for Another Location

Airport:

Trip Planner

Search our weather history database for the weather conditions in past years. The results will help you decide how hot, cold, wet, or windy it might be!

Date:

Astronomy

Dec. 02, 2012 Rise Set
Actual Time 7:35 AM CST 4:23 PM CST
Civil Twilight 7:01 AM CST 4:57 PM CST
Nautical Twilight 6:23 AM CST 5:35 PM CST
Astronomical Twilight 5:46 AM CST 6:12 PM CST
Moon 8:17 PM CST (12/2) 10:20 AM CST (12/2)
Length of Visible Light 9h 56m
Length of Day
8h 47m
Waning Gibbous, 85% of the Moon is Illuminated
Dec 2
Waning Gibbous
Dec 6
Last Quarter
Dec 13
New
Dec 19
First Quarter
Dec 28
Full

Hourly Weather History & Observations

Time (CST) Temp. Windchill Dew Point Humidity Pressure Visibility Wind Dir Wind Speed Gust Speed Precip Events Conditions
12:15 AM 35.6 °F 30.7 °F 32.0 °F 87% 29.82 in 2.5 mi WNW 5.8 mph - N/A   Overcast
12:36 AM 35.6 °F - 32.0 °F 87% 29.82 in 2.5 mi Calm Calm - N/A   Overcast
12:56 AM 33.8 °F 30.8 °F 32.0 °F 93% 29.82 in 2.5 mi West 3.5 mph - N/A   Overcast
1:15 AM 35.6 °F 32.8 °F 32.0 °F 87% 29.83 in 3.0 mi West 3.5 mph - N/A   Overcast
1:36 AM 35.6 °F - 32.0 °F 87% 29.82 in 2.5 mi Calm Calm - N/A   Overcast
1:56 AM 33.8 °F - 32.0 °F 93% 29.82 in 2.0 mi Calm Calm - N/A   Overcast
2:15 AM 33.8 °F - 32.0 °F 93% 29.84 in 2.0 mi Calm Calm - N/A   Overcast
2:36 AM 33.8 °F - 32.0 °F 93% 29.85 in 2.0 mi Calm Calm - N/A   Overcast
2:56 AM 33.8 °F - 32.0 °F 93% 29.85 in 2.5 mi Calm Calm - N/A   Overcast
3:15 AM 33.8 °F 30.8 °F 32.0 °F 93% 29.86 in 2.0 mi WSW 3.5 mph - N/A   Overcast
3:36 AM 33.8 °F - 32.0 °F 93% 29.86 in 2.0 mi Calm Calm - N/A   Overcast
3:56 AM 33.8 °F 29.6 °F 32.0 °F 93% 29.87 in 2.0 mi WSW 4.6 mph - N/A   Overcast
4:15 AM 33.8 °F - 32.0 °F 93% 29.87 in 2.0 mi Calm Calm - N/A   Overcast
4:36 AM 33.8 °F 30.8 °F 32.0 °F 93% 29.87 in 2.0 mi West 3.5 mph - N/A   Overcast
4:56 AM 33.8 °F - 32.0 °F 93% 29.87 in 1.8 mi Calm Calm - N/A   Overcast
5:16 AM 33.8 °F - 32.0 °F 93% 29.88 in 1.8 mi Calm Calm - N/A   Overcast
5:36 AM 33.8 °F - 32.0 °F 93% 29.89 in 1.5 mi Calm Calm - N/A   Overcast
5:56 AM 33.8 °F - 32.0 °F 93% 29.90 in 1.5 mi Calm Calm - N/A   Overcast
6:15 AM 33.8 °F - 32.0 °F 93% 29.90 in 1.5 mi Calm Calm - N/A   Overcast
6:36 AM 33.8 °F - 32.0 °F 93% 29.91 in 1.5 mi Calm Calm - N/A   Overcast
6:56 AM 33.8 °F - 32.0 °F 93% 29.91 in 1.5 mi Calm Calm - N/A   Overcast
7:16 AM 33.8 °F - 32.0 °F 93% 29.92 in 1.2 mi Calm Calm - N/A   Overcast
7:36 AM 33.8 °F - 32.0 °F 93% 29.92 in 1.2 mi Calm Calm - N/A   Overcast
7:56 AM 33.8 °F - 32.0 °F 93% 29.93 in 2.0 mi Calm Calm - N/A   Overcast
8:16 AM 33.8 °F - 32.0 °F 93% 29.94 in 2.5 mi Calm Calm - N/A   Overcast
8:36 AM 33.8 °F 30.8 °F 30.2 °F 87% 29.95 in 1.8 mi WSW 3.5 mph - N/A   Overcast
8:55 AM 33.8 °F - 30.2 °F 87% 29.95 in 1.5 mi Calm Calm - N/A   Overcast
9:16 AM 33.8 °F - 30.2 °F 87% 29.94 in 1.5 mi Calm Calm - N/A   Overcast
9:36 AM 33.8 °F - 30.2 °F 87% 29.94 in 1.5 mi Calm Calm - N/A   Overcast
10:15 AM 33.8 °F 30.8 °F 32.0 °F 93% 29.93 in 1.0 mi South 3.5 mph - N/A   Overcast
10:36 AM 33.8 °F 29.6 °F 32.0 °F 93% 29.94 in 1.0 mi South 4.6 mph - N/A   Overcast
10:56 AM 33.8 °F 30.8 °F 32.0 °F 93% 29.94 in 1.0 mi South 3.5 mph - N/A   Overcast
11:16 AM 33.8 °F 29.6 °F 32.0 °F 93% 29.93 in 0.8 mi SSE 4.6 mph - N/A   Overcast
11:36 AM 35.6 °F 32.8 °F 32.0 °F 87% 29.92 in 1.0 mi South 3.5 mph - N/A   Overcast
11:56 AM 35.6 °F 31.7 °F 32.0 °F 87% 29.92 in 1.0 mi South 4.6 mph - N/A   Overcast
12:16 PM 35.6 °F 31.7 °F 32.0 °F 87% 29.92 in 0.8 mi South 4.6 mph - N/A   Overcast
12:36 PM 35.6 °F 31.7 °F 32.0 °F 87% 29.91 in 0.8 mi South 4.6 mph - N/A   Overcast
12:56 PM 35.6 °F 30.7 °F 32.0 °F 87% 29.90 in 0.8 mi South 5.8 mph - N/A   Overcast
1:16 PM 35.6 °F 29.9 °F 32.0 °F 87% 29.90 in 1.0 mi South 6.9 mph - N/A   Overcast
1:36 PM 35.6 °F 28.6 °F 32.0 °F 87% 29.90 in 1.0 mi South 9.2 mph - N/A   Overcast
1:56 PM 35.6 °F 28.6 °F 32.0 °F 87% 29.90 in 1.0 mi South 9.2 mph - N/A   Overcast
2:16 PM 35.6 °F 30.7 °F 32.0 °F 87% 29.91 in 1.0 mi SSW 5.8 mph - N/A   Overcast
2:36 PM 35.6 °F 31.7 °F 32.0 °F 87% 29.90 in 1.0 mi South 4.6 mph - N/A   Overcast
2:56 PM 35.6 °F 32.8 °F 32.0 °F 87% 29.90 in 1.0 mi SSE 3.5 mph - N/A   Overcast
3:16 PM 35.6 °F 30.7 °F 32.0 °F 87% 29.89 in 1.0 mi South 5.8 mph - N/A   Overcast
3:36 PM 35.6 °F 29.2 °F 32.0 °F 87% 29.89 in 0.8 mi SSE 8.1 mph - N/A   Overcast
3:55 PM 35.6 °F 30.7 °F 32.0 °F 87% 29.88 in 0.8 mi SSE 5.8 mph - N/A   Overcast
4:16 PM 35.6 °F 29.9 °F 32.0 °F 87% 29.87 in 1.0 mi SSE 6.9 mph - N/A   Overcast
4:36 PM 33.8 °F 27.7 °F 32.0 °F 93% 29.87 in 0.8 mi SE 6.9 mph - N/A   Overcast
4:56 PM 33.8 °F 28.6 °F 32.0 °F 93% 29.86 in 0.5 mi SE 5.8 mph - N/A Fog Fog
5:16 PM 33.8 °F 27.7 °F 32.0 °F 93% 29.86 in 0.2 mi SE 6.9 mph - N/A Fog Fog
5:36 PM 33.8 °F 28.6 °F 32.0 °F 93% 29.87 in 0.5 mi SSE 5.8 mph - N/A Fog Fog
5:56 PM 33.8 °F 29.6 °F 32.0 °F 93% 29.86 in 0.2 mi SE 4.6 mph - N/A Fog Fog
6:16 PM 33.8 °F 27.7 °F 32.0 °F 93% 29.85 in 0.2 mi SE 6.9 mph - N/A Fog Fog
6:36 PM 33.8 °F 27.7 °F 32.0 °F 93% 29.84 in 0.2 mi SE 6.9 mph - N/A Fog Fog
6:56 PM 33.8 °F 28.6 °F 32.0 °F 93% 29.84 in 0.2 mi SE 5.8 mph - N/A Fog Fog
7:15 PM 33.8 °F 27.7 °F 32.0 °F 93% 29.84 in 0.2 mi ESE 6.9 mph - N/A Fog Fog
7:56 PM 33.8 °F 28.6 °F 32.0 °F 93% 29.83 in 0.2 mi SE 5.8 mph - N/A Fog Fog
8:15 PM 33.8 °F 27.0 °F 32.0 °F 93% 29.82 in 0.2 mi ESE 8.1 mph - N/A Fog Fog
8:36 PM 33.8 °F 27.7 °F 32.0 °F 93% 29.81 in 0.2 mi ESE 6.9 mph - N/A Fog Fog
8:56 PM 33.8 °F 27.7 °F 32.0 °F 93% 29.80 in 0.2 mi ESE 6.9 mph - N/A Fog Fog
9:15 PM 33.8 °F 28.6 °F 32.0 °F 93% 29.80 in 0.2 mi SE 5.8 mph - N/A Fog Fog
9:36 PM 33.8 °F 28.6 °F 32.0 °F 93% 29.79 in 0.2 mi SE 5.8 mph - N/A Fog Fog
9:56 PM 33.8 °F 28.6 °F 32.0 °F 93% 29.79 in 0.2 mi ESE 5.8 mph - N/A Fog Fog
10:15 PM 33.8 °F 28.6 °F 32.0 °F 93% 29.79 in 0.2 mi SE 5.8 mph - N/A Fog Fog
10:36 PM 33.8 °F 27.7 °F 32.0 °F 93% 29.78 in 0.2 mi ESE 6.9 mph - N/A Fog Fog
10:56 PM 33.8 °F 29.6 °F 32.0 °F 93% 29.78 in 0.5 mi ESE 4.6 mph - N/A Fog Fog
11:15 PM 33.8 °F 29.6 °F 32.0 °F 93% 29.78 in 0.2 mi SE 4.6 mph - N/A Fog Fog
11:36 PM 35.6 °F 29.2 °F 33.8 °F 93% 29.78 in 4.0 mi SSE 8.1 mph - N/A   Scattered Clouds
11:56 PM 35.6 °F 29.2 °F 33.8 °F 93% 29.77 in 5.0 mi SE 8.1 mph - N/A   Clear